KB7STN Weather Reports


time (UTC)temp
F
wind
direction
speed
knots
gust
knots
rain 1hr
in
rain 24hr
in
rain mn
in
humidity
%
barometer
mb
20260904175515 79 240 1.7 7.8 0.00 0.00 0.00 23 1016.4
20260904175015 79 211 1.7 7.0 0.00 0.00 0.00 24 1016.5
20260904174515 78 260 1.7 8.7 0.00 0.00 0.00 26 1016.3
20260904174015 78 214 1.7 4.3 0.00 0.00 0.00 26 1016.3
20260904173515 78 225 2.6 9.6 0.00 0.00 0.00 27 1016.4
20260904173015 77 268 2.6 7.0 0.00 0.00 0.00 27 1016.5
20260904172515 77 221 2.6 9.6 0.00 0.00 0.00 27 1016.5
20260904172015 77 234 1.7 10.4 0.00 0.00 0.00 27 1016.4
20260904171515 77 240 2.6 8.7 0.00 0.00 0.00 27 1016.5
20260904171015 77 245 2.6 10.4 0.00 0.00 0.00 27 1016.5
20260904170515 77 221 2.6 8.7 0.00 0.00 0.00 28 1016.4
20260904170015 77 222 1.7 7.0 0.00 0.00 0.00 27 1016.7
20260904165515 76 227 1.7 4.3 0.00 0.00 0.00 27 1016.5
20260904165015 76 207 1.7 6.1 0.00 0.00 0.00 27 1016.5
20260904164515 76 206 0.9 6.1 0.00 0.00 0.00 27 1016.6
20260904164015 75 234 0.9 4.3 0.00 0.00 0.00 28 1016.6
20260904163515 75 238 0.9 5.2 0.00 0.00 0.00 28 1016.8
20260904163015 75 270 1.7 11.3 0.00 0.00 0.00 27 1016.7
20260904162515 75 244 0.9 2.6 0.00 0.00 0.00 27 1016.8
20260904162015 75 250 1.7 7.0 0.00 0.00 0.00 29 1016.7
20260904161515 75 251 1.7 5.2 0.00 0.00 0.00 30 1016.7
20260904161015 75 289 0.9 4.3 0.00 0.00 0.00 29 1016.7
20260904160515 74 272 0.9 7.8 0.00 0.00 0.00 29 1016.7
20260904160015 74 150 1.7 6.1 0.00 0.00 0.00 29 1016.7
20260904155515 74 217 0.9 5.2 0.00 0.00 0.00 27 1016.5
20260904155015 74 236 0.9 3.5 0.00 0.00 0.00 28 1016.5
20260904154515 74 236 0.9 4.3 0.00 0.00 0.00 27 1016.5
20260904154015 74 237 0.9 3.5 0.00 0.00 0.00 27 1016.6
20260904153515 73 238 0.0 4.3 0.00 0.00 0.00 27 1016.5
20260904153015 73 238 0.0 2.6 0.00 0.00 0.00 28 1016.6
20260904152515 73 238 0.0 5.2 0.00 0.00 0.00 27 1016.6
20260904152015 73 238 0.0 3.5 0.00 0.00 0.00 26 1016.6
20260904151515 72 238 0.0 4.3 0.00 0.00 0.00 27 1016.7
20260904151015 72 240 0.9 3.5 0.00 0.00 0.00 27 1016.6
20260904150515 72 231 0.9 4.3 0.00 0.00 0.00 27 1016.6
20260904150015 72 232 0.0 3.5 0.00 0.00 0.00 26 1016.6
20260904145515 71 233 0.0 2.6 0.00 0.00 0.00 26 1016.6
20260904145015 71 234 0.0 1.7 0.00 0.00 0.00 26 1016.5
20260904144515 71 233 0.0 2.6 0.00 0.00 0.00 25 1016.5
20260904144016 71 233 0.0 2.6 0.00 0.00 0.00 26 1016.5
20260904143515 70 233 0.0 2.6 0.00 0.00 0.00 26 1016.4
20260904143016 70 234 0.9 1.7 0.00 0.00 0.00 26 1016.4
20260904142516 69 234 0.9 5.2 0.00 0.00 0.00 26 1016.4
20260904142016 69 237 0.9 6.1 0.00 0.00 0.00 26 1016.5
20260904141516 69 236 0.0 3.5 0.00 0.00 0.00 25 1016.5
20260904141016 69 236 0.0 0.0 0.00 0.00 0.00 26 1016.5
20260904140516 69 236 0.0 2.6 0.00 0.00 0.00 26 1016.4
20260904140016 69 236 0.0 2.6 0.00 0.00 0.00 26 1016.4
20260904135516 68 236 0.0 2.6 0.00 0.00 0.00 26 1016.3
20260904135016 68 238 0.0 4.3 0.00 0.00 0.00 25 1016.3
20260904134516 67 234 0.0 1.7 0.00 0.00 0.00 25 1016.2
20260904134016 67 234 0.0 2.6 0.00 0.00 0.00 25 1016.2
20260904133516 67 236 0.0 0.9 0.00 0.00 0.00 25 1016.1
20260904133016 66 237 0.0 1.7 0.00 0.00 0.00 24 1016.0
20260904132516 66 237 0.9 5.2 0.00 0.00 0.00 24 1016.0
20260904132016 66 239 0.9 3.5 0.00 0.00 0.00 24 1015.9
20260904131516 66 240 0.9 5.2 0.00 0.00 0.00 23 1015.9
20260904131016 66 235 0.9 7.0 0.00 0.00 0.00 23 1015.8
20260904130516 66 257 0.9 5.2 0.00 0.00 0.00 23 1015.7
20260904130016 66 227 0.9 7.0 0.00 0.00 0.00 22 1015.7
20260904125516 66 209 0.9 3.5 0.00 0.00 0.00 21 1015.7
20260904125016 66 208 0.9 4.3 0.00 0.00 0.00 20 1015.6
20260904124516 66 211 0.9 4.3 0.00 0.00 0.00 20 1015.5
20260904124016 66 208 0.9 6.1 0.00 0.00 0.00 20 1015.4
20260904123516 66 209 0.9 4.3 0.00 0.00 0.00 20 1015.4
20260904123016 66 208 0.9 2.6 0.00 0.00 0.00 20 1015.2
20260904122516 66 208 0.9 5.2 0.00 0.00 0.00 19 1015.2
20260904122016 66 205 0.9 3.5 0.00 0.00 0.00 20 1015.1
20260904121516 66 203 0.0 2.6 0.00 0.00 0.00 20 1015.1
20260904121016 66 202 0.9 2.6 0.00 0.00 0.00 19 1015.1
20260904120516 66 202 0.9 3.5 0.00 0.00 0.00 19 1015.1
20260904120016 66 205 1.7 5.2 0.00 0.00 0.00 19 1014.9
20260904115516 66 202 0.9 5.2 0.00 0.00 0.00 19 1014.9
20260904115016 66 203 0.9 3.5 0.00 0.00 0.00 20 1014.8
20260904114516 66 205 0.9 3.5 0.00 0.00 0.00 19 1014.9
20260904114016 66 211 1.7 3.5 0.00 0.00 0.00 19 1014.8
20260904113516 67 212 0.9 3.5 0.00 0.00 0.00 18 1014.8
20260904113016 67 212 0.9 2.6 0.00 0.00 0.00 18 1014.8
20260904112516 67 213 0.9 4.3 0.00 0.00 0.00 18 1014.8
20260904112016 68 213 0.9 4.3 0.00 0.00 0.00 18 1014.8
20260904111516 68 213 0.9 3.5 0.00 0.00 0.00 18 1014.8
20260904111016 68 230 1.7 2.6 0.00 0.00 0.00 18 1014.8
20260904110516 68 239 1.7 6.1 0.00 0.00 0.00 18 1014.8
20260904110016 68 239 1.7 4.3 0.00 0.00 0.00 18 1014.7
20260904105516 68 242 0.9 5.2 0.00 0.00 0.00 17 1014.7
20260904105016 68 243 0.9 5.2 0.00 0.00 0.00 18 1014.5
20260904104516 68 238 0.9 5.2 0.00 0.00 0.00 17 1014.6
20260904104016 68 240 1.7 3.5 0.00 0.00 0.00 18 1014.5
20260904103516 68 241 1.7 7.0 0.00 0.00 0.00 17 1014.5
20260904103016 68 242 1.7 3.5 0.00 0.00 0.00 17 1014.6
20260904102516 68 249 0.9 6.1 0.00 0.00 0.00 17 1014.6
20260904102016 68 249 0.9 6.1 0.00 0.00 0.00 17 1014.6
20260904101516 68 252 0.9 2.6 0.00 0.00 0.00 18 1014.5
20260904101016 68 252 1.7 3.5 0.00 0.00 0.00 18 1014.5
20260904100516 68 252 0.9 4.3 0.00 0.00 0.00 17 1014.4
20260904100016 67 252 0.9 4.3 0.00 0.00 0.00 18 1014.4
20260904095516 67 253 0.9 3.5 0.00 0.00 0.00 18 1014.4
20260904095016 67 253 0.0 2.6 0.00 0.00 0.00 18 1014.4
20260904094516 67 254 0.0 0.9 0.00 0.00 0.00 18 1014.5
20260904094016 67 254 0.0 1.7 0.00 0.00 0.00 18 1014.5
20260904093516 67 253 0.0 2.6 0.00 0.00 0.00 18 1014.5
20260904093016 67 254 0.0 2.6 0.00 0.00 0.00 18 1014.6
20260904092516 67 254 0.0 0.0 0.00 0.00 0.00 18 1014.6
20260904092016 67 254 0.0 2.6 0.00 0.00 0.00 18 1014.6
20260904091516 67 254 0.0 1.7 0.00 0.00 0.00 18 1014.5
20260904091016 67 254 0.0 2.6 0.00 0.00 0.00 18 1014.5
20260904090516 66 254 0.0 1.7 0.00 0.00 0.00 18 1014.5
20260904090016 66 254 0.0 1.7 0.00 0.00 0.00 19 1014.5
20260904085516 66 254 0.0 0.0 0.00 0.00 0.00 19 1014.5
20260904085016 66 254 0.0 0.0 0.00 0.00 0.00 21 1014.4
20260904084516 66 254 0.0 0.0 0.00 0.00 0.00 20 1014.5
20260904084016 66 254 0.0 0.0 0.00 0.00 0.00 20 1014.4
20260904083516 67 254 0.0 0.0 0.00 0.00 0.00 21 1014.4
20260904083016 67 254 0.0 0.0 0.00 0.00 0.00 20 1014.4
20260904082516 67 254 0.0 0.0 0.00 0.00 0.00 20 1014.3
20260904082016 68 254 0.0 0.9 0.00 0.00 0.00 20 1014.2
20260904081516 68 254 0.0 2.6 0.00 0.00 0.00 20 1014.1
20260904081016 68 254 0.0 0.0 0.00 0.00 0.00 20 1014.1
20260904080516 68 254 0.0 2.6 0.00 0.00 0.00 19 1014.0
20260904080016 68 254 0.0 0.0 0.00 0.00 0.00 19 1014.0
20260904075516 68 254 0.0 0.0 0.00 0.00 0.00 18 1014.1
20260904075016 68 254 0.0 0.0 0.00 0.00 0.00 19 1014.2
20260904074516 69 254 0.0 0.0 0.00 0.00 0.00 19 1014.2
20260904074016 69 254 0.0 2.6 0.00 0.00 0.00 18 1014.1
20260904073516 69 254 0.0 0.0 0.00 0.00 0.00 18 1014.1
20260904073016 69 254 0.9 4.3 0.00 0.00 0.00 18 1014.0
20260904072516 69 254 0.9 2.6 0.00 0.00 0.00 18 1013.9
20260904072016 70 254 0.0 2.6 0.00 0.00 0.00 18 1013.8
20260904071516 70 254 0.0 2.6 0.00 0.00 0.00 18 1013.9
20260904071016 70 254 0.9 3.5 0.00 0.00 0.00 18 1013.8
20260904070517 70 257 0.9 6.1 0.00 0.00 0.00 18 1013.9
20260904070016 71 256 0.9 7.0 0.00 0.00 0.00 18 1013.9
20260904065516 71 259 0.0 3.5 0.00 0.00 0.00 18 1013.8
20260904065016 71 259 0.0 2.6 0.00 0.00 0.00 18 1013.9
20260904064516 71 259 0.9 4.3 0.00 0.00 0.00 18 1013.8
20260904064016 71 259 0.9 3.5 0.00 0.00 0.00 18 1013.7
20260904063516 71 259 0.9 4.3 0.00 0.00 0.00 18 1013.6
20260904063016 71 259 0.9 4.3 0.00 0.00 0.00 18 1013.6
20260904062516 71 260 0.9 4.3 0.00 0.00 0.00 18 1013.5
20260904062016 71 261 0.9 4.3 0.00 0.00 0.00 18 1013.5
20260904061516 72 264 0.9 3.5 0.00 0.00 0.00 18 1013.4
20260904061016 72 265 0.9 2.6 0.00 0.00 0.00 18 1013.4
20260904060516 72 265 0.9 5.2 0.00 0.00 0.00 18 1013.4
20260904060016 72 284 0.9 3.5 0.00 0.00 0.00 18 1013.4
20260904055516 73 284 0.9 4.3 0.00 0.00 0.00 17 1013.4
20260904055016 73 298 0.9 7.0 0.00 0.00 0.00 17 1013.3
20260904054516 73 257 0.9 6.1 0.00 0.00 0.00 17 1013.4
20260904054016 73 241 0.9 4.3 0.00 0.00 0.00 17 1013.3
20260904053516 74 272 1.7 6.1 0.00 0.00 0.00 17 1013.3
20260904053016 74 286 0.9 7.8 0.00 0.00 0.00 17 1013.2
20260904052516 74 250 0.9 5.2 0.00 0.00 0.00 17 1013.2
20260904052016 74 194 0.9 6.1 0.00 0.00 0.00 17 1013.2
20260904051516 74 224 1.7 6.1 0.00 0.00 0.00 17 1013.2
20260904051016 74 251 1.7 6.1 0.00 0.00 0.00 17 1013.1
20260904050517 74 220 1.7 4.3 0.00 0.00 0.00 17 1013.1
20260904050016 75 232 1.7 5.2 0.00 0.00 0.00 17 1013.1
20260904045516 75 221 1.7 7.0 0.00 0.00 0.00 17 1013.0
20260904045016 75 201 1.7 6.1 0.00 0.00 0.00 17 1013.1
20260904044516 75 196 1.7 7.0 0.00 0.00 0.00 17 1013.1
20260904044017 75 227 1.7 6.1 0.00 0.00 0.00 17 1013.1
20260904043516 75 223 1.7 6.1 0.00 0.00 0.00 17 1013.1
20260904043017 74 238 1.7 4.3 0.00 0.00 0.00 17 1013.1
20260904042516 74 241 0.9 9.6 0.00 0.00 0.00 17 1013.1
20260904042017 74 261 0.9 1.7 0.00 0.00 0.00 17 1013.1
20260904041517 74 261 0.0 3.5 0.00 0.00 0.00 17 1013.0
20260904041017 74 261 0.0 3.5 0.00 0.00 0.00 17 1013.1
20260904040517 74 261 0.0 4.3 0.00 0.00 0.00 17 1013.0
20260904040017 74 263 0.0 2.6 0.00 0.00 0.00 17 1013.0
20260904035517 74 263 0.0 2.6 0.00 0.00 0.00 17 1012.9
20260904035017 74 263 0.0 2.6 0.00 0.00 0.00 17 1012.7
20260904034517 74 263 0.0 4.3 0.00 0.00 0.00 17 1012.7
20260904034017 74 263 0.0 2.6 0.00 0.00 0.00 17 1012.6
20260904033517 74 263 0.0 3.5 0.00 0.00 0.00 17 1012.7
20260904033017 74 263 0.0 2.6 0.00 0.00 0.00 17 1012.7
20260904032517 74 263 0.0 0.0 0.00 0.00 0.00 17 1012.7
20260904032017 74 264 0.0 1.7 0.00 0.00 0.00 17 1012.7
20260904031517 74 263 0.0 0.9 0.00 0.00 0.00 18 1012.6
20260904031017 74 264 0.0 0.0 0.00 0.00 0.00 17 1012.6
20260904030517 75 264 0.0 0.0 0.00 0.00 0.00 16 1012.6
20260904030017 75 263 0.0 2.6 0.00 0.00 0.00 17 1012.5
20260904025517 75 264 0.0 3.5 0.00 0.00 0.00 16 1012.5
20260904025017 75 264 0.0 0.0 0.00 0.00 0.00 16 1012.5
20260904024517 76 264 0.0 0.0 0.00 0.00 0.00 17 1012.5
20260904024017 76 264 0.9 2.6 0.00 0.00 0.00 16 1012.5
20260904023517 76 265 0.9 2.6 0.00 0.00 0.00 16 1012.5
20260904023017 76 265 0.0 0.0 0.00 0.00 0.00 16 1012.5
20260904022517 76 264 0.0 1.7 0.00 0.00 0.00 16 1012.3
20260904022017 76 264 0.0 0.9 0.00 0.00 0.00 16 1012.4
20260904021517 77 264 0.0 1.7 0.00 0.00 0.00 16 1012.4
20260904021017 77 264 0.0 2.6 0.00 0.00 0.00 16 1012.4
20260904020517 77 265 0.9 1.7 0.00 0.00 0.00 16 1012.4
20260904020017 77 269 0.9 3.5 0.00 0.00 0.00 15 1012.4
20260904015517 77 268 0.9 5.2 0.00 0.00 0.00 15 1012.4
20260904015017 77 283 0.0 3.5 0.00 0.00 0.00 15 1012.4
20260904014517 78 287 0.9 4.3 0.00 0.00 0.00 15 1012.5
20260904014017 78 289 0.9 7.8 0.00 0.00 0.00 15 1012.5
20260904013517 78 246 0.0 3.5 0.00 0.00 0.00 15 1012.4
20260904013017 78 236 0.9 3.5 0.00 0.00 0.00 15 1012.5
20260904012517 78 228 0.9 7.0 0.00 0.00 0.00 15 1012.4
20260904012017 78 261 0.9 4.3 0.00 0.00 0.00 16 1012.5
20260904011517 79 253 0.9 6.1 0.00 0.00 0.00 15 1012.6
20260904011017 79 257 0.9 7.0 0.00 0.00 0.00 15 1012.5
20260904010517 79 256 0.9 4.3 0.00 0.00 0.00 15 1012.6
20260904010017 79 273 1.7 11.3 0.00 0.00 0.00 15 1012.7
20260904005517 79 211 0.9 6.1 0.00 0.00 0.00 15 1012.7
20260904005017 79 257 0.9 3.5 0.00 0.00 0.00 15 1012.8
20260904004517 79 261 0.9 3.5 0.00 0.00 0.00 15 1012.8
20260904004017 79 260 0.9 5.2 0.00 0.00 0.00 15 1012.8
20260904003517 79 258 0.9 7.0 0.00 0.00 0.00 15 1012.8
20260904003017 79 260 0.9 9.6 0.00 0.00 0.00 15 1012.7
20260904002517 80 278 0.9 7.0 0.00 0.00 0.00 15 1013.0
20260904002017 80 223 0.9 6.1 0.00 0.00 0.00 15 1012.8
20260904001517 80 236 0.9 5.2 0.00 0.00 0.00 15 1012.7
20260904001017 81 257 0.9 7.0 0.00 0.00 0.00 16 1012.8
20260904000517 81 257 1.7 5.2 0.00 0.00 0.00 15 1012.7
20260904000017 81 256 0.9 4.3 0.00 0.00 0.00 15 1012.8
20260903235517 81 244 0.9 7.0 0.00 0.00 0.00 16 1012.7
20260903235017 81 246 0.9 5.2 0.00 0.00 0.00 16 1012.7
20260903234517 82 273 1.7 5.2 0.00 0.00 0.00 15 1012.8
20260903234017 82 256 1.7 7.0 0.00 0.00 0.00 15 1013.0
20260903233517 82 212 1.7 6.1 0.00 0.00 0.00 15 1013.0
20260903233017 82 213 1.7 6.1 0.00 0.00 0.00 15 1013.1
20260903232517 82 229 1.7 6.1 0.00 0.00 0.00 15 1013.0
20260903232017 82 196 1.7 8.7 0.00 0.00 0.00 15 1013.1
20260903231517 82 236 0.9 4.3 0.00 0.00 0.00 15 1013.1
20260903231017 82 238 0.9 4.3 0.00 0.00 0.00 15 1013.1
20260903230517 82 247 0.9 12.2 0.00 0.00 0.00 15 1013.3
20260903230017 82 291 1.7 7.0 0.00 0.00 0.00 15 1013.5
20260903225517 82 166 1.7 5.2 0.00 0.00 0.00 15 1013.4
20260903225017 82 220 0.9 7.8 0.00 0.00 0.00 14 1013.4
20260903224517 82 230 1.7 5.2 0.00 0.00 0.00 14 1013.6
20260903224017 82 264 1.7 7.0 0.00 0.00 0.00 14 1013.7
20260903223517 82 289 1.7 5.2 0.00 0.00 0.00 14 1013.7
20260903223017 82 296 1.7 8.7 0.00 0.00 0.00 13 1013.9
20260903222517 82 271 1.7 7.8 0.00 0.00 0.00 15 1013.8
20260903222017 82 210 1.7 6.1 0.00 0.00 0.00 14 1014.0
20260903221517 82 265 1.7 6.1 0.00 0.00 0.00 14 1014.1
20260903221017 82 217 1.7 7.8 0.00 0.00 0.00 13 1014.1
20260903220517 82 230 0.9 5.2 0.00 0.00 0.00 15 1014.1
20260903220017 82 213 0.9 3.5 0.00 0.00 0.00 14 1014.2
20260903215517 82 214 0.9 4.3 0.00 0.00 0.00 14 1014.2
20260903215017 82 219 0.9 4.3 0.00 0.00 0.00 14 1014.3
20260903214517 82 231 1.7 6.1 0.00 0.00 0.00 15 1014.3
20260903214017 82 250 2.6 7.0 0.00 0.00 0.00 14 1014.4
20260903213517 82 223 2.6 7.0 0.00 0.00 0.00 14 1014.3
20260903213017 82 229 2.6 6.1 0.00 0.00 0.00 13 1014.5
20260903212517 82 208 1.7 4.3 0.00 0.00 0.00 13 1014.4
20260903212017 81 267 0.9 7.0 0.00 0.00 0.00 15 1014.5
20260903211517 81 268 1.7 7.0 0.00 0.00 0.00 14 1014.5
20260903211017 81 223 1.7 12.2 0.00 0.00 0.00 14 1014.7
20260903210517 81 275 1.7 5.2 0.00 0.00 0.00 15 1014.7
20260903210017 81 211 3.5 8.7 0.00 0.00 0.00 14 1014.9
20260903205517 81 207 1.7 7.8 0.00 0.00 0.00 14 1015.0
20260903205017 81 194 0.9 3.5 0.00 0.00 0.00 16 1014.9
20260903204517 81 207 0.9 6.1 0.00 0.00 0.00 15 1015.1
20260903204017 81 221 0.9 7.0 0.00 0.00 0.00 15 1015.1
20260903203517 81 246 0.9 10.4 0.00 0.00 0.00 15 1015.2
20260903203017 81 214 1.7 4.3 0.00 0.00 0.00 15 1015.3
20260903202517 81 243 1.7 7.8 0.00 0.00 0.00 15 1015.4
20260903202017 81 217 0.9 7.0 0.00 0.00 0.00 16 1015.6
20260903201517 80 208 0.0 3.5 0.00 0.00 0.00 17 1015.6
20260903201017 80 209 0.0 3.5 0.00 0.00 0.00 15 1015.6
20260903200517 80 223 0.9 7.0 0.00 0.00 0.00 15 1015.7
20260903200017 80 258 1.7 5.2 0.00 0.00 0.00 16 1015.8
20260903195517 80 229 1.7 5.2 0.00 0.00 0.00 15 1015.9
20260903195017 80 217 2.6 6.1 0.00 0.00 0.00 16 1015.9
20260903194517 80 211 0.9 8.7 0.00 0.00 0.00 16 1015.8
20260903194017 80 263 0.0 1.7 0.00 0.00 0.00 17 1016.0
20260903193517 79 263 1.7 6.1 0.00 0.00 0.00 16 1016.0
20260903193017 79 270 1.7 7.0 0.00 0.00 0.00 15 1016.2
20260903192517 80 184 1.7 7.0 0.00 0.00 0.00 15 1016.3
20260903192017 79 174 0.9 6.1 0.00 0.00 0.00 16 1016.3
20260903191517 79 261 0.9 3.5 0.00 0.00 0.00 17 1016.4
20260903191017 79 271 0.9 5.2 0.00 0.00 0.00 17 1016.5
20260903190517 79 257 0.9 5.2 0.00 0.00 0.00 17 1016.5
20260903190017 79 277 0.9 5.2 0.00 0.00 0.00 17 1016.7
20260903185518 79 213 0.9 9.6 0.00 0.00 0.00 16 1016.7
20260903185017 79 220 0.9 7.0 0.00 0.00 0.00 17 1016.7
20260903184517 78 228 0.9 5.2 0.00 0.00 0.00 17 1016.8
20260903184017 78 252 0.9 4.3 0.00 0.00 0.00 16 1016.9
20260903183517 78 263 0.9 4.3 0.00 0.00 0.00 17 1016.9
20260903183017 78 276 1.7 7.0 0.00 0.00 0.00 16 1016.8
20260903182517 77 231 1.7 5.2 0.00 0.00 0.00 16 1017.3
20260903182017 77 210 2.6 7.0 0.00 0.00 0.00 18 1017.0
20260903181517 77 220 2.6 9.6 0.00 0.00 0.00 17 1017.0
20260903181018 77 211 1.7 5.2 0.00 0.00 0.00 18 1017.3
20260903180518 77 198 1.7 7.0 0.00 0.00 0.00 17 1017.3
20260903180017 77 195 0.9 5.2 0.00 0.00 0.00 17 1017.3